Hourly Weather Roundup
Issued by NWS Central Illinois

Home | Current Version | Previous Version | Text Only | Print | Product List | Glossary Off
Versions: 1 2 3 4 5 6 7 8 9 10 11 12 13 14 15 16 17 18 19 20 21 22 23 24 25 26 27 28 29 30 31 32 33 34 35 36 37 38 39 40 41 42 43 44 45 46 47 48 49 50

000
NZUS43 KILX 182310
HWRILX

AREA WEATHER ROUNDUP
NATIONAL WEATHER SERVICE, LINCOLN IL
500 PM CST THU DEC 18 2014


CITY           SKY/WX    TMP DP  RH WIND       PRES   REMARKS
BLOOMINGTON    MOCLDY    27  21  77 CALM      30.25R
CHAMPAIGN      CLOUDY    28  22  78 W5        30.25R WCI  23
DECATUR        CLOUDY    29  23  78 CALM      30.25S
FLORA          MOCLDY    31  25  77 CALM      30.25S
GALESBURG      CLOUDY    27  21  78 W3        30.25S
JACKSONVILLE   CLOUDY    31  27  83 CALM      30.26R
LACON          PTCLDY    26  19  73 CALM      30.26S
LAWRENCEVILLE  CLOUDY    31  24  75 CALM      30.25S
LITCHFIELD     CLOUDY    30  23  75 NE5       30.24S WCI  25
$$


CITY           SKY/WX    TMP DP  RH WIND       PRES   REMARKS
LINCOLN        CLOUDY    30  24  78 CALM      30.27S
MACOMB         CLOUDY    29  23  76 N5        30.28R WCI  24
MATTOON        CLOUDY    29  22  75 N5        30.24R WCI  24
MT CARMEL AP   CLOUDY    34  25  69 NE3       30.25S
OLNEY-NOBLE AP CLOUDY    30  25  80 CALM      30.25S
PARIS          CLOUDY    29  25  82 CALM      30.26R
PEORIA         MOCLDY    29  18  63 N3        30.26R
PONTIAC        CLOUDY    28  23  81 N5        30.26R WCI  23
RANTOUL        CLOUDY    30  24  79 CALM      30.25R
ROBINSON       CLOUDY    30  24  76 N3        30.26S
SPRINGFIELD    CLOUDY    30  25  81 N5        30.26S WCI  25
TAYLORVILLE    CLOUDY    28  25  86 N5        30.26R WCI  23
$$

...REGIONAL REPORTS...


CITY           SKY/WX    TMP DP  RH WIND       PRES   REMARKS
CHICAGO O`HARE CLOUDY    28  19  69 N6        30.23R WCI  22
KANKAKEE       CLOUDY    27  21  79 NW3       30.26R
MOLINE         CLOUDY    27  17  66 N6        30.26R WCI  20
MOUNT VERNON   CLOUDY    34  25  69 E3        30.23F
PITTSFIELD     CLOUDY    30  26  86 CALM      30.26R
QUINCY         CLOUDY    29  24  82 N5        30.25R WCI  24
ROCKFORD       CLOUDY    26  16  65 N5        30.27R WCI  20
$$


CITY           SKY/WX    TMP DP  RH WIND       PRES   REMARKS
BURLINGTON     CLOUDY    28  21  75 NW3       30.26R
CEDAR RAPIDS   CLOUDY    24  18  77 NW5       30.25R WCI  18
DES MOINES     CLOUDY    30  21  69 E5        30.25R WCI  25
KIRKSVILLE     CLOUDY    30  28  92 NE7       30.23S WCI  23
OTTUMWA        CLOUDY    26  22  84 CALM      30.25R
ST LOUIS       CLOUDY    36  27  69 E5        30.24S WCI  32
$$


CITY           SKY/WX    TMP DP  RH WIND       PRES   REMARKS
TERRE HAUTE    CLOUDY    30  22  72 NE5       30.24S WCI  25
EVANSVILLE     CLOUDY    34  25  69 N3        30.25S
INDIANAPOLIS   CLOUDY    27  21  78 W3        30.22S
LAFAYETTE      CLOUDY    26  21  81 NW3       30.25R
MADISON        FLURRIES  26  22  84 N3        30.24R
MILWAUKEE      CLOUDY    29  23  78 NW7       30.23S WCI  22
$$




USA.gov is the U.S. government's official web portal to all federal, state and local government web resources and services.